Regional Weather Roundup
Issued by NWS Austin/San Antonio, TX

Home | Current Version | Previous Version | Text Only | Print | Product List | Glossary On
Versions: 1 2 3 4 5 6 7 8 9 10 11 12 13 14 15 16 17 18 19 20 21 22 23 24 25 26 27 28 29 30 31 32 33 34 35 36 37 38 39 40 41 42 43 44 45 46 47 48 49 50
000
ASUS44 KEWX 250501
RWREWX
SOUTH TEXAS REGIONAL WEATHER ROUNDUP
NATIONAL WEATHER SERVICE AUSTIN/SAN ANTONIO TX
1200 AM CDT SUN AUG 25 2019

NOTE: "FAIR" INDICATED FEW OR NO CLOUDS BELOW 12,000 FEET WITH NO
SIGNIFICANT WEATHER AND/OR OBSTRUCTIONS TO VISIBILITY.

* - THESE STATIONS ARE NOT NWS OR FAA STATIONS...AND ARE NOT SUBJECT
    TO NWS AND FAA QUALITY CONTROL.

TXZ171-172-183>190-250600-
TEXAS HILL COUNTRY AND EDWARDS PLATEAU

CITY           SKY/WX    TMP DP  RH WIND       PRES   REMARKS
JUNCTION       CLEAR     75  71  87 N5        29.99S
*LLANO         CLEAR     79  73  83 CALM      29.98S
BURNET         CLEAR     79  71  76 CALM      29.97S
*HORSESHOE BAY CLEAR     79  73  83 S7        29.95S
*KERRVILLE     CLEAR     74  71  90 CALM      29.98S
*FREDERICKSBRG CLEAR     74  72  93 CALM      29.99R
*ROCKSPRINGS   CLEAR     73  70  88 SE8       30.05S
*BOERNE        PTCLDY    75  75 100 CALM      29.98F
*CASTROVILLE   LGT RAIN  79  76  91 E3        29.96F
HONDO          PTCLDY    77  75  93 CALM      29.95S
*UVALDE        CLEAR     76  75  97 NE6       29.95F
DEL RIO        PTCLDY    81  70  69 E7        29.91S
LAUGHLIN AFB   DRIZZLE   80  70  72 SE5       29.93S
SPOFFORD       CLEAR     79  72  78 SE8       29.88R
*EAGLE PASS    CLOUDY    79  73  83 SE7       29.94R
CARRIZO SPRGS  CLEAR     77  77 100 CALM      29.91S
$$

TXZ173-191>194-202-209-217>225-228-250600-
CENTRAL AND SOUTH CENTRAL TEXAS

CITY           SKY/WX    TMP DP  RH WIND       PRES   REMARKS
GEORGETOWN     CLEAR     80  73  79 SW5       29.94F
AUSTIN/BERGSTM MOCLDY    79  72  79 SE3       29.92R
AUSTIN/MABRY   CLEAR     77  74  90 CALM      29.93S
*AUSTIN/EXEC   CLEAR     77  75  94 CALM      29.93S
*LAGO VISTA    CLEAR     77  73  85 SW3       29.95S
SAN MARCOS     CLEAR     78  75  90 SW5       29.93S
NEW BRAUNFELS  LGT RAIN  78  74  87 CALM      29.92S
RANDOLPH AFB   DRIZZLE   79  75  89 CALM      29.93F
SEGUIN         MOCLDY    77  76  96 CALM      29.96S
KELLY FIELD    CLEAR     80  76  89 S5        29.91F
SAN ANTONIO    LGT RAIN  80  74  81 S7        29.93F
STINSON FIELD  LGT RAIN  81  77  88 SW3       29.91F
PLEASANTON     LGT RAIN  80  76  88 SE5       29.93F
*LA GRANGE     PTCLDY    80  80 100 CALM      29.90S
*GIDDINGS      CLEAR     83  76  77 SW5       29.92S HX  91
*GONZALES      CLEAR     80  80  99 S6        29.91S
$$

TXZ163>164-176>182-195>201-210>213-226-227-235-250600-
SOUTHEAST TEXAS

CITY           SKY/WX    TMP DP  RH WIND       PRES   REMARKS
COLLEGE STN    MOCLDY    83  76  79 S8        29.90R HX  91
*BRYAN         MOCLDY    85  76  74 SE7       29.91R HX  95
*CALDWELL      CLEAR     81  73  77 SW5       29.91S
*CROCKETT      CLEAR     81  75  83 CALM      29.94S
*BRENHAM       CLOUDY    84  76  77 SW3       29.92R HX  93
HUNTSVILLE     MOCLDY    84  75  74 S6        29.91R HX  92
CONROE         PTCLDY    82  76  81 S6        29.92R
HOUSTON BUSH   CLOUDY    82  75  79 S6        29.91S
HOUSTON HOBBY  CLOUDY    81  76  84 S7        29.90F
*HOUSTON SW AP FAIR      77  76  98 CALM      29.93S
PEARLAND       FAIR      80  76  87 S3        29.93S
HOUSTON HOOKS  MOCLDY    82  74  76 SW6       29.91S
ELLINGTON FLD  CLOUDY    79  72  78 S3        29.90S
SUGAR LAND     FAIR      81  78  91 S7        29.91F
*HOUSTON EXEC  FAIR      81  77  89 S7        29.93R
*CLEVELAND MUN FAIR      78  78 100 S3        29.92S
*WHARTON       PTCLDY    79  76  90 S5        29.92F
*COLUMBUS      FAIR      80  75  86 S5        29.92S
*EAGLE LAKE    PTCLDY    83  79  89 S8        29.92S HX  93
$$

TXZ214>216-236>238-250600-
THE UPPER TEXAS COAST

CITY           SKY/WX    TMP DP  RH WIND       PRES   REMARKS
*ORANGE        MOCLDY    80  79  97 CALM      29.94S
PORT ARTHUR    MOCLDY    79  77  94 S6        29.91S
GALVESTON      MOCLDY    84  78  82 S10       29.92S HX  95
ANGLETON       FAIR      79  76  90 S3        29.92F
*BAY CITY      CLEAR     81  79  95 S3        29.91F HX  91
PALACIOS       MOCLDY    85  77  77 S9        29.90F HX  95
$$

TXZ229>234-239>247-250600-
TEXAS COASTAL BEND AND RIO GRANDE PLAINS

CITY           SKY/WX    TMP DP  RH WIND       PRES   REMARKS
VICTORIA       CLEAR     81  77  88 S6        29.90F
*BEEVILLE      NOT AVBL
ROCKPORT       CLEAR     83  77  82 S6        29.89F HX  92
*PORT ARANSAS  CLEAR     83  77  81 SE13      29.91F HX  93
*PORT LAVACA   CLEAR     82  79  90 S6        29.90F HX  93
*INGLESIDE     CLEAR     83  78  84 S7        29.89F HX  93
CORPUS CHRISTI CLOUDY    83  78  85 SE8       29.90F HX  93
CORPUS NAS     CLEAR     83  79  88 SE14      29.89F HX  94
*ROBSTOWN      PTCLDY    82  78  85 SE6       29.90F HX  91
ALICE          CLEAR     82  79  90 SE6       29.89F HX  92
KINGSVILLE NAS CLEAR     83  79  88 E7        29.89F HX  94
COTULLA        CLEAR     83  77  82 SE6       29.90F HX  92
LAREDO         CLEAR     82  72  71 SE10      29.89F
$$

TXZ248>255-250600-
DEEP SOUTH TEXAS

CITY           SKY/WX    TMP DP  RH WIND       PRES   REMARKS
BROWNSVILLE    FAIR      84  81  90 SE3       29.89S HX  99
PORT ISABEL    FAIR      83  77  82 SE5       29.89F HX  92
HARLINGEN      CLEAR     81  73  76 S6        29.88S
*HEBBRONVILLE  CLEAR     78  71  79 CALM      29.92F
MCALLEN        CLEAR     80  69  69 SE3       29.90R
*WESLACO       CLEAR     80  67  64 CALM      29.89R
FALFURRIAS     CLEAR     84  80  87 CALM      29.88S HX  98
EDINBURG       FAIR      81  69  66 CALM      29.89S
*ZAPATA        NOT AVBL
$$

TXZ213>215-236>238-242>244-246-247-251-254-255-250600-
CMAN STATIONS

STATION/POSITION TIME  TEMP    WIND        PRES    WAVE
                       AIR SEA DIR/SP/G            HT/PER
                 (UTC) (F)     (DEG/KT/KT) (MB)    (FT/S)
SABINE PASS      0424   82 87  170/  7/  9 1014.8
NORTH JETTY/GLS  0424   84 85  190/  9/ 11 1012.1
EAGLE POINT      0424   82 86  210/  5/  7 1012.2
MORGANS POINT    0424   82 87  200/  6/  9 1012.9
PORT O`CONNOR    0424   83 88  180/ 11/ 13 1012.6
PORT ARANSAS     0400   83 87  140/ 11/ 12 1013.0
MALAQUITE BEACH  0424   84 88  120/ 12/ 14 1012.4
BAFFIN BAY       0424   83 88  110/ 10/ 14 1012.3
PORT ISABEL      0418   84 84  160/  2/  4 1012.6
$$



USA.gov is the U.S. government's official web portal to all federal, state and local government web resources and services.